Time,TemperatureF,DewpointF,PressureIn,WindDirection,WindDirectionDegrees,WindSpeedMPH,WindSpeedGustMPH,Humidity,HourlyPrecipIn,Conditions,Clouds,dailyrainin,SolarRadiationWatts/m^2,SoftwareType,DateUTC
2013-05-11 00:02:00,60.7,36.0,31.62,ESE,117,1.0,2.0,40,0.00,,,0.00,0,weatherlink.com 1.10,2013-05-11 06:02:00,
2013-05-11 00:17:00,59.6,38.0,31.63,ESE,117,0.0,1.0,45,0.00,,,0.00,0,weatherlink.com 1.10,2013-05-11 06:17:00,
2013-05-11 00:32:00,59.0,38.0,31.63,ESE,117,0.0,1.0,45,0.00,,,0.00,0,weatherlink.com 1.10,2013-05-11 06:32:00,
2013-05-11 00:47:00,59.7,37.0,31.63,ESE,117,0.0,1.0,43,0.00,,,0.00,0,weatherlink.com 1.10,2013-05-11 06:47:00,
2013-05-11 01:02:00,60.3,37.0,31.64,ESE,117,0.0,1.0,42,0.00,,,0.00,0,weatherlink.com 1.10,2013-05-11 07:02:00,
2013-05-11 01:17:00,59.5,37.0,31.64,SSE,155,2.0,5.0,43,0.00,,,0.00,0,weatherlink.com 1.10,2013-05-11 07:17:00,
2013-05-11 01:32:00,58.7,37.0,31.65,SSE,166,3.0,6.0,44,0.00,,,0.00,0,weatherlink.com 1.10,2013-05-11 07:32:00,
2013-05-11 01:47:00,57.5,37.0,31.65,SSE,155,5.0,9.0,46,0.00,,,0.00,0,weatherlink.com 1.10,2013-05-11 07:47:00,
2013-05-11 02:02:00,55.5,36.0,31.65,South,190,5.0,10.0,49,0.00,,,0.00,0,weatherlink.com 1.10,2013-05-11 08:02:00,
2013-05-11 02:17:00,54.2,37.0,31.65,South,188,2.0,4.0,52,0.00,,,0.00,0,weatherlink.com 1.10,2013-05-11 08:17:00,
2013-05-11 02:32:00,55.2,37.0,31.65,SSE,162,2.0,5.0,51,0.00,,,0.00,0,weatherlink.com 1.10,2013-05-11 08:32:00,
2013-05-11 02:47:00,55.2,37.0,31.65,SSE,153,0.0,0.0,51,0.00,,,0.00,0,weatherlink.com 1.10,2013-05-11 08:47:00,
2013-05-11 03:02:00,55.0,37.0,31.65,SSE,153,0.0,1.0,51,0.00,,,0.00,0,weatherlink.com 1.10,2013-05-11 09:02:00,
2013-05-11 03:17:00,54.9,38.0,31.65,SSE,149,0.0,2.0,53,0.00,,,0.00,0,weatherlink.com 1.10,2013-05-11 09:17:00,
2013-05-11 03:32:00,54.4,37.0,31.65,SSE,149,0.0,1.0,53,0.00,,,0.00,0,weatherlink.com 1.10,2013-05-11 09:32:00,
2013-05-11 03:47:00,54.3,38.0,31.65,SSE,149,0.0,2.0,54,0.00,,,0.00,0,weatherlink.com 1.10,2013-05-11 09:47:00,
2013-05-11 04:02:00,53.7,37.0,31.65,SSE,154,6.0,7.0,53,0.00,,,0.00,0,weatherlink.com 1.10,2013-05-11 10:02:00,
2013-05-11 04:17:00,55.7,37.0,31.65,SSE,161,7.0,11.0,49,0.00,,,0.00,0,weatherlink.com 1.10,2013-05-11 10:17:00,
2013-05-11 04:32:00,54.8,36.0,31.65,SSW,195,0.0,9.0,50,0.00,,,0.00,0,weatherlink.com 1.10,2013-05-11 10:32:00,
2013-05-11 04:47:00,52.3,37.0,31.65,SSW,195,0.0,2.0,57,0.00,,,0.00,0,weatherlink.com 1.10,2013-05-11 10:47:00,
2013-05-11 05:02:00,52.5,36.0,31.65,SSW,195,0.0,1.0,54,0.00,,,0.00,0,weatherlink.com 1.10,2013-05-11 11:02:00,
2013-05-11 05:17:00,52.2,36.0,31.65,South,182,2.0,4.0,55,0.00,,,0.00,0,weatherlink.com 1.10,2013-05-11 11:17:00,
2013-05-11 05:32:00,52.4,36.0,31.65,South,182,0.0,3.0,54,0.00,,,0.00,0,weatherlink.com 1.10,2013-05-11 11:32:00,
2013-05-11 05:47:00,52.2,36.0,31.65,South,182,0.0,2.0,55,0.00,,,0.00,0,weatherlink.com 1.10,2013-05-11 11:47:00,
2013-05-11 06:02:00,52.1,36.0,31.65,South,182,0.0,2.0,55,0.00,,,0.00,5,weatherlink.com 1.10,2013-05-11 12:02:00,
2013-05-11 06:17:00,51.0,36.0,31.65,South,182,2.0,2.0,58,0.00,,,0.00,11,weatherlink.com 1.10,2013-05-11 12:17:00,
2013-05-11 06:32:00,50.4,36.0,31.65,South,182,1.0,2.0,59,0.00,,,0.00,21,weatherlink.com 1.10,2013-05-11 12:32:00,
2013-05-11 06:47:00,50.1,37.0,31.65,South,178,3.0,4.0,60,0.00,,,0.00,28,weatherlink.com 1.10,2013-05-11 12:47:00,
2013-05-11 07:03:00,50.8,37.0,31.65,SSE,155,6.0,6.0,59,0.00,,,0.00,46,weatherlink.com 1.10,2013-05-11 13:03:00,
2013-05-11 07:18:00,51.0,37.0,31.65,SSE,165,3.0,5.0,59,0.00,,,0.00,69,weatherlink.com 1.10,2013-05-11 13:18:00,
2013-05-11 07:33:00,51.1,37.0,31.65,South,180,0.0,4.0,60,0.00,,,0.00,98,weatherlink.com 1.10,2013-05-11 13:33:00,
2013-05-11 07:48:00,51.3,38.0,31.65,South,180,0.0,1.0,60,0.00,,,0.00,135,weatherlink.com 1.10,2013-05-11 13:48:00,
2013-05-11 08:03:00,51.9,38.0,31.65,SSW,193,0.0,2.0,59,0.00,,,0.00,165,weatherlink.com 1.10,2013-05-11 14:03:00,
2013-05-11 08:18:00,51.8,39.0,31.65,SSW,194,1.0,3.0,62,0.00,,,0.00,220,weatherlink.com 1.10,2013-05-11 14:18:00,
2013-05-11 08:33:00,51.9,40.0,31.65,NW,317,0.0,4.0,63,0.00,,,0.00,127,weatherlink.com 1.10,2013-05-11 14:33:00,
2013-05-11 08:48:00,51.1,40.0,31.65,NW,317,3.0,4.0,65,0.00,,,0.00,169,weatherlink.com 1.10,2013-05-11 14:48:00,
2013-05-11 09:03:00,52.1,40.0,31.65,West,264,0.0,4.0,63,0.00,,,0.00,260,weatherlink.com 1.10,2013-05-11 15:03:00,
2013-05-11 09:18:00,53.5,39.0,31.64,South,187,3.0,7.0,58,0.00,,,0.00,237,weatherlink.com 1.10,2013-05-11 15:18:00,
2013-05-11 09:33:00,52.6,38.0,31.64,SSW,202,6.0,7.0,58,0.00,,,0.00,188,weatherlink.com 1.10,2013-05-11 15:33:00,
2013-05-11 09:48:00,52.4,39.0,31.64,SSW,207,4.0,7.0,60,0.00,,,0.00,271,weatherlink.com 1.10,2013-05-11 15:48:00,
2013-05-11 10:03:00,53.1,39.0,31.64,SSW,195,5.0,7.0,59,0.00,,,0.00,445,weatherlink.com 1.10,2013-05-11 16:03:00,
2013-05-11 10:18:00,-999.0,-99.9,31.63,North,-999,-999.0,-999.0,-999,0.00,,,0.00,,weatherlink.com 1.10,2013-05-11 16:18:00,
2013-05-11 10:33:00,-999.0,-99.9,31.62,North,-999,-999.0,-999.0,-999,0.00,,,0.00,,weatherlink.com 1.10,2013-05-11 16:33:00,
2013-05-11 10:48:00,57.5,41.0,31.61,NW,324,0.0,2.0,55,0.00,,,0.00,482,weatherlink.com 1.10,2013-05-11 16:48:00,
2013-05-11 11:03:00,59.8,43.0,31.61,WSW,245,1.0,5.0,55,0.00,,,0.00,726,weatherlink.com 1.10,2013-05-11 17:03:00,
2013-05-11 11:18:00,61.4,43.0,31.60,WSW,245,2.0,7.0,51,0.00,,,0.00,722,weatherlink.com 1.10,2013-05-11 17:18:00,
2013-05-11 11:33:00,62.5,42.0,31.60,WSW,244,6.0,7.0,47,0.00,,,0.00,763,weatherlink.com 1.10,2013-05-11 17:33:00,
2013-05-11 11:48:00,63.4,42.0,31.59,WSW,240,3.0,7.0,46,0.00,,,0.00,789,weatherlink.com 1.10,2013-05-11 17:48:00,
2013-05-11 12:03:00,65.0,42.0,31.58,SW,223,7.0,9.0,44,0.00,,,0.00,810,weatherlink.com 1.10,2013-05-11 18:03:00,
2013-05-11 12:18:00,66.5,43.0,31.58,SSW,198,7.0,9.0,42,0.00,,,0.00,816,weatherlink.com 1.10,2013-05-11 18:18:00,
2013-05-11 12:34:00,67.6,40.0,31.57,SW,217,7.0,10.0,37,0.00,,,0.00,830,weatherlink.com 1.10,2013-05-11 18:34:00,
2013-05-11 12:49:00,69.0,40.0,31.56,SW,214,4.0,9.0,35,0.00,,,0.00,846,weatherlink.com 1.10,2013-05-11 18:49:00,
2013-05-11 13:04:00,69.7,41.0,31.55,SSW,192,7.0,10.0,35,0.00,,,0.00,754,weatherlink.com 1.10,2013-05-11 19:04:00,
2013-05-11 13:19:00,69.9,41.0,31.54,SW,218,5.0,10.0,35,0.00,,,0.00,888,weatherlink.com 1.10,2013-05-11 19:19:00,
2013-05-11 13:34:00,72.9,44.0,31.54,SW,227,11.0,12.0,35,0.00,,,0.00,912,weatherlink.com 1.10,2013-05-11 19:34:00,
2013-05-11 13:49:00,73.2,42.0,31.53,SW,225,8.0,12.0,33,0.00,,,0.00,1025,weatherlink.com 1.10,2013-05-11 19:49:00,
2013-05-11 14:04:00,71.0,41.0,31.54,SSW,213,7.0,13.0,34,0.00,,,0.00,258,weatherlink.com 1.10,2013-05-11 20:04:00,
2013-05-11 14:19:00,70.8,42.0,31.52,South,182,13.0,14.0,36,0.00,,,0.00,279,weatherlink.com 1.10,2013-05-11 20:19:00,
2013-05-11 14:34:00,69.9,40.0,31.53,SE,143,4.0,12.0,34,0.00,,,0.00,185,weatherlink.com 1.10,2013-05-11 20:34:00,
2013-05-11 14:49:00,73.8,41.0,31.52,South,184,15.0,15.0,31,0.00,,,0.00,1034,weatherlink.com 1.10,2013-05-11 20:49:00,
2013-05-11 15:04:00,72.3,39.0,31.52,South,170,5.0,15.0,30,0.00,,,0.00,179,weatherlink.com 1.10,2013-05-11 21:04:00,
2013-05-11 15:19:00,73.0,39.0,31.52,South,189,6.0,12.0,29,0.00,,,0.00,243,weatherlink.com 1.10,2013-05-11 21:19:00,
2013-05-11 15:34:00,72.4,38.0,31.51,SSE,165,12.0,14.0,29,0.00,,,0.00,258,weatherlink.com 1.10,2013-05-11 21:34:00,
2013-05-11 15:49:00,72.9,40.0,31.50,SE,126,13.0,21.0,30,0.00,,,0.00,295,weatherlink.com 1.10,2013-05-11 21:49:00,
2013-05-11 16:04:00,73.0,39.0,31.49,SE,146,12.0,15.0,29,0.00,,,0.00,531,weatherlink.com 1.10,2013-05-11 22:04:00,
2013-05-11 16:19:00,73.5,40.0,31.48,SSE,162,9.0,15.0,30,0.00,,,0.00,325,weatherlink.com 1.10,2013-05-11 22:19:00,
2013-05-11 16:34:00,74.4,39.0,31.47,SSE,161,8.0,13.0,28,0.00,,,0.00,195,weatherlink.com 1.10,2013-05-11 22:34:00,
2013-05-11 16:49:00,73.9,39.0,31.47,SSE,147,8.0,11.0,28,0.00,,,0.00,179,weatherlink.com 1.10,2013-05-11 22:49:00,
2013-05-11 17:04:00,74.5,37.0,31.46,ENE,58,3.0,13.0,26,0.00,,,0.00,218,weatherlink.com 1.10,2013-05-11 23:04:00,
2013-05-11 17:19:00,75.9,40.0,31.46,WSW,240,10.0,15.0,27,0.00,,,0.00,663,weatherlink.com 1.10,2013-05-11 23:19:00,
2013-05-11 17:34:00,77.0,37.0,31.46,West,261,3.0,13.0,24,0.00,,,0.00,701,weatherlink.com 1.10,2013-05-11 23:34:00,
2013-05-11 17:49:00,76.6,37.0,31.45,South,190,15.0,15.0,24,0.00,,,0.00,171,weatherlink.com 1.10,2013-05-11 23:49:00,
2013-05-11 18:04:00,77.9,39.0,31.45,WNW,296,11.0,15.0,25,0.00,,,0.00,517,weatherlink.com 1.10,2013-05-12 00:04:00,
2013-05-11 18:19:00,76.0,39.0,31.45,West,263,5.0,18.0,26,0.00,,,0.00,489,weatherlink.com 1.10,2013-05-12 00:19:00,
2013-05-11 18:34:00,76.4,39.0,31.45,NW,307,5.0,18.0,26,0.00,,,0.00,197,weatherlink.com 1.10,2013-05-12 00:34:00,
2013-05-11 18:49:00,75.4,38.0,31.45,WNW,300,6.0,15.0,26,0.00,,,0.00,79,weatherlink.com 1.10,2013-05-12 00:49:00,
2013-05-11 19:04:00,74.3,38.0,31.45,West,267,3.0,8.0,27,0.00,,,0.00,214,weatherlink.com 1.10,2013-05-12 01:04:00,
2013-05-11 19:19:00,74.8,39.0,31.44,WSW,257,4.0,9.0,27,0.00,,,0.00,197,weatherlink.com 1.10,2013-05-12 01:19:00,
2013-05-11 19:34:00,75.4,39.0,31.44,WNW,286,5.0,9.0,27,0.00,,,0.00,276,weatherlink.com 1.10,2013-05-12 01:34:00,
2013-05-11 19:49:00,75.6,38.0,31.44,WSW,252,4.0,9.0,26,0.00,,,0.00,241,weatherlink.com 1.10,2013-05-12 01:49:00,
2013-05-11 20:04:00,74.3,38.0,31.44,NNW,327,6.0,10.0,27,0.00,,,0.00,141,weatherlink.com 1.10,2013-05-12 02:04:00,
2013-05-11 20:19:00,73.2,38.0,31.45,WNW,300,3.0,10.0,28,0.00,,,0.00,83,weatherlink.com 1.10,2013-05-12 02:19:00,
2013-05-11 20:34:00,72.0,38.0,31.45,WNW,294,7.0,9.0,29,0.00,,,0.00,23,weatherlink.com 1.10,2013-05-12 02:34:00,
2013-05-11 20:49:00,70.6,38.0,31.45,West,266,4.0,11.0,31,0.00,,,0.00,11,weatherlink.com 1.10,2013-05-12 02:49:00,
2013-05-11 21:05:00,70.0,38.0,31.45,WSW,248,0.0,3.0,31,0.00,,,0.00,0,weatherlink.com 1.10,2013-05-12 03:05:00,
2013-05-11 21:20:00,69.9,39.0,31.45,West,264,0.0,5.0,32,0.00,,,0.00,0,weatherlink.com 1.10,2013-05-12 03:20:00,
2013-05-11 21:35:00,69.9,39.0,31.45,NW,305,1.0,5.0,32,0.00,,,0.00,0,weatherlink.com 1.10,2013-05-12 03:35:00,
2013-05-11 21:50:00,69.5,38.0,31.46,NW,306,1.0,5.0,32,0.00,,,0.00,0,weatherlink.com 1.10,2013-05-12 03:50:00,
2013-05-11 22:05:00,69.2,39.0,31.46,NW,307,0.0,3.0,33,0.00,,,0.00,0,weatherlink.com 1.10,2013-05-12 04:05:00,
2013-05-11 22:20:00,68.5,39.0,31.46,NW,307,0.0,2.0,34,0.00,,,0.00,0,weatherlink.com 1.10,2013-05-12 04:20:00,
2013-05-11 22:35:00,68.5,39.0,31.47,North,5,1.0,3.0,34,0.00,,,0.00,0,weatherlink.com 1.10,2013-05-12 04:35:00,
2013-05-11 22:50:00,68.1,39.0,31.47,NNE,32,1.0,2.0,34,0.00,,,0.00,0,weatherlink.com 1.10,2013-05-12 04:50:00,
2013-05-11 23:05:00,67.6,39.0,31.47,NE,36,1.0,3.0,35,0.00,,,0.00,0,weatherlink.com 1.10,2013-05-12 05:05:00,
2013-05-11 23:20:00,67.4,39.0,31.47,West,266,0.0,7.0,35,0.00,,,0.00,0,weatherlink.com 1.10,2013-05-12 05:20:00,
2013-05-11 23:35:00,66.8,39.0,31.47,NNW,344,0.0,3.0,36,0.00,,,0.00,0,weatherlink.com 1.10,2013-05-12 05:35:00,
2013-05-11 23:50:00,66.1,39.0,31.48,NNW,345,0.0,1.0,37,0.00,,,0.00,0,weatherlink.com 1.10,2013-05-12 05:50:00,